LEMUR H

Last updated on Sat Sep 08 2018 00:00:46 GMT+0000 (Coordinated Universal Time)

1 43561U 18046H 18250.45469289 .00003608 00000-0 14316-3 0 9996 2 43561 51.6430 339.0963 0008882 148.5108 211.6405 15.27922179 7647
UTC large
Height (km)
Speed (km/s)
/
Latitude / Longitude
Inclination (degrees)
Orbital Period (minutes)
Azimuth
Elevation
Range (km)
Doppler Factor

Next 0 passes for location: London (51.5072 / 0.1276)

Sorry there are no passes over London.